Vorticity
7 8 14 22 17 7 7 11 11 4 -0 3 5 8 9 7 8 9 9 12 9 1 -1 7 16 17 18 19 17 17 17 10 10 10 2 2 -3 -2 9 1 -8 -1 5 15 21 16 11 3 -0 6 9 10 20 20 -0 -8 -2 -3 2 14 16 7 4 9 8 -4 1 23 28 13 7 13 11 6 6 5 6 7 5 4 5 8 9 9 8 7
5 10 15 18 14 10 8 9 14 10 4 3 2 3 4 8 8 5 13 24 25 14 0 1 8 14 28 24 8 16 26 13 8 14 7 -1 -2 2 7 -2 -7 2 2 7 22 19 2 -4 1 7 7 4 18 32 22 16 15 4 7 14 14 16 12 6 4 9 21 26 19 12 11 11 6 4 5 6 6 4 4 5 7 7 7 8 8 7
5 9 14 13 11 12 8 7 13 13 12 8 4 3 1 5 5 4 16 15 10 15 13 9 6 10 22 9 -14 2 29 22 7 11 10 2 2 4 5 4 3 2 -5 -5 7 6 -7 -4 7 7 6 6 13 15 11 19 20 9 10 9 8 14 13 14 20 25 26 19 13 13 12 6 3 4 4 1 0 2 4 6 7 7 7 8 7 9
6 8 10 11 12 12 9 8 10 10 14 13 9 10 5 4 4 6 20 15 1 10 17 10 5 9 11 4 -9 -6 19 27 9 4 5 3 8 10 5 2 2 -3 -7 -3 2 3 4 10 14 11 6 5 8 9 8 11 10 8 9 5 6 10 13 21 25 22 18 13 14 13 8 3 2 0 -4 -5 -3 -0 3 4 6 7 8 9 9 9
8 8 8 11 13 13 10 8 9 11 13 13 14 15 12 9 9 15 25 25 10 8 15 5 1 11 8 4 -3 -10 21 38 13 -1 -2 3 12 14 15 9 -0 -1 -1 -1 1 6 15 14 11 14 9 2 5 11 17 14 7 8 9 6 6 8 19 19 -0 -2 14 23 23 13 5 -1 -9 -8 -4 -2 -2 -3 3 6 6 7 8 9 9 8
9 7 7 9 10 12 12 9 8 10 11 12 12 12 14 12 14 22 21 18 8 4 16 6 -2 15 10 1 -7 -9 28 37 5 -2 -2 5 12 7 16 15 -1 -2 -1 1 5 10 15 2 -1 14 13 6 7 9 15 16 8 7 7 12 13 8 17 19 5 11 22 22 17 5 -1 -5 -8 2 5 -1 -1 2 8 7 5 9 10 10 10 9
7 7 9 9 8 9 11 12 10 10 9 10 12 12 14 13 16 23 15 11 6 -1 14 6 -8 9 11 4 -1 -2 28 23 -10 -6 0 2 8 2 5 3 -3 1 1 1 4 10 13 -4 -10 8 10 4 7 10 15 15 9 11 13 13 13 6 7 10 12 19 15 17 21 -2 -17 -7 3 11 8 4 9 10 10 9 8 11 12 12 12 12
9 7 8 9 11 10 9 12 11 11 10 6 11 13 13 19 23 20 11 14 10 -5 9 15 -1 5 10 7 0 -4 24 27 -8 -10 0 -3 -2 2 5 3 2 2 -1 -0 1 6 10 -2 -5 10 14 5 4 12 17 14 10 13 15 10 8 10 12 9 10 13 5 14 25 -7 -28 -7 8 7 8 12 11 5 9 14 12 11 11 12 12 11
12 9 10 9 9 9 12 15 10 10 12 9 14 15 13 24 26 13 4 9 12 -0 4 15 10 8 6 7 6 -3 14 30 10 -5 -4 -4 -3 1 3 3 1 -1 -1 3 4 3 -0 1 10 19 18 5 3 16 14 7 12 12 8 8 11 15 18 16 13 15 9 7 10 -5 -11 6 10 6 8 7 1 1 12 15 10 11 11 11 12 11
9 10 10 8 5 8 13 16 11 10 14 14 17 18 19 27 22 9 1 2 12 11 2 3 7 6 -0 -1 5 3 5 18 20 8 -1 -2 0 -1 -2 -2 -2 3 6 6 6 -0 -4 12 27 22 14 6 11 23 11 1 11 14 12 14 15 13 14 16 16 19 21 15 10 5 6 11 8 3 1 -3 -8 -2 12 14 8 11 10 9 10 8
9 8 8 9 10 12 10 13 14 11 12 10 8 15 25 32 23 9 -2 -6 8 15 5 2 6 6 1 -7 -5 -0 -1 2 9 10 10 10 1 -8 -3 4 5 4 7 11 9 1 3 23 28 15 13 13 11 12 7 7 12 11 14 15 8 2 0 2 5 8 13 16 13 9 7 5 3 -1 -2 -3 -11 -9 10 14 8 9 10 10 10 8
8 7 8 13 17 14 7 10 12 9 10 7 6 15 27 37 29 9 -5 -8 3 9 3 5 14 16 11 3 -2 -3 -3 -2 -2 1 7 12 8 1 1 6 6 5 10 12 4 3 16 25 17 10 14 13 8 7 11 17 13 5 8 12 9 10 8 5 5 5 7 8 10 12 10 5 2 0 1 2 -8 -6 12 13 7 10 10 11 12 10
12 12 11 13 17 12 6 7 5 7 10 6 9 14 18 34 31 7 -3 -5 1 7 -1 -1 9 12 12 14 10 6 6 7 11 18 19 15 12 7 0 -2 1 7 11 4 -2 9 22 17 8 8 10 9 12 17 16 16 18 16 12 10 10 12 13 13 13 12 12 11 11 13 17 17 14 10 8 6 -1 2 13 11 7 10 10 11 11 9
14 14 12 11 14 10 7 12 7 7 14 15 22 17 11 30 29 3 -3 -3 -2 8 2 -4 2 4 7 15 17 17 15 9 17 34 33 21 11 5 2 1 4 9 7 -0 4 16 15 7 6 7 12 18 18 16 12 6 11 16 11 7 7 9 12 14 14 13 12 14 13 11 14 16 16 13 10 6 5 10 13 9 7 8 9 9 6 7
10 11 9 10 16 11 9 24 21 6 9 21 25 13 7 23 23 1 -4 -1 -0 7 8 2 4 6 7 9 13 23 26 13 9 19 22 14 7 5 7 8 9 7 1 2 14 18 10 4 5 8 15 18 12 9 11 8 3 5 11 13 11 11 13 11 11 11 9 11 12 11 10 11 12 12 11 11 14 16 10 5 6 7 7 6 6 7
7 10 9 10 19 16 8 22 31 11 3 19 20 6 3 13 16 7 3 8 10 11 13 6 -0 3 5 2 3 14 28 23 5 1 7 9 5 3 3 3 4 1 -1 8 16 13 10 6 7 12 15 13 12 13 14 14 11 12 19 21 16 14 13 11 12 10 8 7 8 9 10 10 13 14 14 16 17 13 7 5 5 5 5 6 6 6
7 6 7 8 14 14 1 7 28 14 -5 11 19 8 8 10 11 10 6 11 14 10 10 6 -1 -0 -2 -3 -2 -0 16 22 5 -3 4 7 4 1 0 -0 -2 -2 2 4 0 -0 10 16 16 16 14 13 15 12 6 8 13 19 22 19 16 13 9 7 6 4 4 4 5 8 11 13 16 15 11 11 11 7 4 4 3 4 6 6 5 6
8 7 7 9 7 9 6 4 18 13 -9 -1 13 11 12 11 9 7 0 6 13 9 11 10 4 2 -5 -7 -9 -10 4 10 2 4 7 8 11 7 5 7 4 5 8 1 -7 -7 2 13 15 14 14 14 13 9 7 8 13 17 14 10 9 7 5 5 3 2 3 2 3 5 9 12 11 7 5 3 4 3 2 3 3 4 5 4 5 6
6 7 10 13 6 6 10 6 13 17 2 -3 8 11 9 7 16 18 4 4 10 6 11 15 12 12 9 6 -2 -6 2 4 4 13 9 5 16 16 10 12 13 10 6 4 2 -4 -6 -1 5 10 11 9 8 6 4 8 12 12 8 4 4 2 2 2 1 3 5 3 4 5 4 7 4 -0 1 3 5 6 5 5 6 5 5 6 7 6
6 6 10 14 10 5 4 3 10 19 12 2 4 9 7 4 18 26 11 5 7 4 7 8 9 15 15 15 14 10 13 12 6 10 11 6 11 14 10 12 16 13 7 10 11 5 4 3 2 7 7 5 8 4 9 21 12 4 11 11 7 4 3 6 6 5 6 4 5 7 5 4 3 -0 -0 3 6 8 7 7 6 5 6 7 7 7
6 5 9 12 11 8 2 3 12 17 13 7 2 6 10 3 7 16 12 7 5 6 10 7 3 7 9 11 12 7 11 16 3 1 21 27 13 8 10 10 11 9 5 7 7 5 8 8 6 7 3 6 8 -0 17 35 5 -13 7 13 11 9 1 8 14 5 5 6 3 5 6 4 4 3 2 3 4 5 5 6 7 8 8 7 9 9
7 1 8 12 9 8 4 4 13 14 12 10 4 5 10 4 0 4 8 11 6 4 13 18 10 7 8 10 10 4 4 10 7 5 21 29 14 6 8 8 8 7 4 4 4 5 8 8 7 6 5 10 7 -1 17 29 2 -8 7 8 16 19 3 8 16 4 2 7 5 4 5 5 6 5 4 3 3 5 4 4 8 10 10 9 7 5
8 2 6 12 8 5 4 5 9 9 9 11 8 7 9 6 5 5 4 8 9 3 5 13 14 12 12 6 6 11 8 7 13 12 10 11 11 9 7 7 8 8 7 6 4 5 10 10 6 7 11 12 7 7 12 14 12 12 4 -6 1 6 -4 1 10 4 -0 1 5 9 7 5 8 8 7 3 3 6 4 4 9 11 10 8 3 2
9 6 5 11 10 4 2 8 11 6 6 9 7 6 7 6 6 10 9 5 7 7 6 8 8 8 10 7 7 12 11 12 19 19 13 12 14 15 14 15 15 12 13 14 11 11 12 13 11 8 9 9 12 16 11 14 18 0 -14 2 18 18 14 13 14 14 11 3 -1 3 9 11 10 7 6 4 4 6 5 4 8 10 9 6 2 0
4 6 8 11 11 6 1 4 11 10 4 4 6 5 4 2 2 6 11 7 4 6 7 9 9 7 6 8 11 13 14 16 16 10 9 10 8 8 11 11 10 9 11 13 17 18 13 11 11 10 13 15 14 11 10 20 11 -21 -13 28 32 16 16 19 20 21 16 6 -4 -6 4 13 14 13 9 5 5 5 4 5 7 9 9 6 2 2
7 1 8 10 10 10 2 -0 9 14 8 -0 1 6 2 -1 1 2 6 8 6 6 5 4 5 5 4 4 8 11 11 13 14 12 13 12 6 3 5 9 9 5 2 4 8 12 12 12 12 10 11 8 4 6 15 21 6 -8 14 31 4 -13 -4 2 8 12 8 7 7 7 8 6 11 19 13 7 9 9 7 7 6 7 8 5 4 6
19 -0 1 7 10 10 3 2 6 10 16 10 0 3 4 -1 -1 1 4 5 2 2 7 9 7 3 3 6 9 7 -0 -5 0 8 13 14 14 14 15 18 18 13 10 9 8 9 12 13 9 4 0 -1 2 8 13 18 19 22 27 9 -15 -8 6 2 3 10 10 10 13 16 12 4 6 9 2 0 8 12 12 10 6 6 7 6 6 10
27 9 0 -1 8 13 7 6 6 3 15 20 6 1 5 2 -1 -0 3 4 0 -2 1 7 10 10 9 9 8 9 9 3 0 3 5 3 4 8 7 3 4 10 14 14 12 12 14 13 12 11 11 13 14 12 15 17 19 31 35 17 5 9 6 -1 3 8 5 4 12 20 16 7 7 8 3 4 9 12 14 13 8 6 7 8 9 10
28 24 17 0 -1 12 9 6 10 4 3 10 9 7 6 -0 -1 2 2 4 4 4 3 2 3 4 0 -3 -2 2 4 2 0 2 0 -5 -4 5 8 4 6 11 11 10 9 10 12 14 15 12 9 13 16 24 29 4 -21 -5 16 14 17 13 -4 -3 11 11 3 1 13 29 25 11 11 14 14 14 12 9 9 10 10 11 11 12 11 9
26 30 34 15 -7 -0 7 5 10 9 2 -0 3 13 17 5 -1 4 4 4 5 5 5 4 2 2 -2 -2 4 6 2 3 9 14 11 7 14 23 19 11 10 11 8 7 7 5 5 8 10 5 2 2 -1 0 -0 -22 -30 -3 8 -1 5 3 -7 9 22 14 10 10 15 27 26 17 17 18 17 17 13 12 14 16 16 15 13 12 10 8
24 27 38 34 7 -5 -0 2 4 8 10 4 -1 16 35 22 5 5 3 1 2 2 3 4 3 3 2 3 8 10 8 8 10 18 25 20 16 16 9 3 4 6 8 10 10 11 10 9 9 9 9 9 5 -0 -3 -7 -0 15 14 7 11 6 4 19 20 8 10 14 18 25 21 16 20 17 12 12 13 17 21 18 14 11 9 9 10 9
20 30 44 53 36 13 6 8 8 6 10 12 4 12 28 21 10 12 7 3 4 -1 -2 3 4 3 4 5 5 5 9 12 10 17 24 18 10 7 4 5 7 8 10 11 10 11 10 8 10 10 9 9 9 9 10 11 11 12 12 15 15 12 12 13 8 8 13 15 21 19 1 -5 8 12 8 10 14 16 11 5 6 8 7 6 8 8
1 13 30 45 43 30 20 15 10 8 11 17 13 7 5 3 4 4 -5 -6 3 3 0 6 9 7 7 10 9 8 18 27 25 20 11 1 5 10 8 9 9 8 8 8 11 14 12 10 10 7 6 7 7 8 10 12 13 13 13 14 12 11 11 8 6 8 8 11 13 3 -13 -9 5 11 10 12 14 13 8 6 11 11 9 9 7 5
-19 -11 7 25 30 31 33 27 22 25 27 29 32 29 23 17 14 11 4 -0 -2 -4 -1 10 17 14 9 10 9 4 4 2 -7 -13 -15 -17 -10 -2 3 6 5 3 2 3 11 19 16 11 8 7 10 10 10 15 19 19 19 16 13 15 16 13 8 6 9 7 5 7 4 -4 -3 5 9 11 12 11 12 11 8 10 10 1 1 9 6 -0
-12 -4 5 7 4 16 37 40 31 26 21 18 21 25 32 34 25 21 26 29 23 13 10 17 24 22 11 12 17 12 5 1 -6 -9 -6 -4 -0 5 7 5 2 2 4 3 3 1 -5 -5 1 11 20 17 10 11 13 17 22 21 16 14 12 12 9 5 6 6 6 7 4 2 6 6 6 10 10 5 6 6 3 8 3 -17 -23 -9 -0 -0
-7 2 7 -1 -10 1 19 23 22 21 17 16 14 8 14 25 25 21 22 27 32 31 21 14 17 21 17 20 31 33 28 28 27 22 18 16 16 19 18 12 6 4 4 5 6 0 -5 -2 4 8 10 9 6 3 7 20 22 6 -1 3 4 4 5 2 2 5 5 6 7 7 6 4 4 5 2 -1 -0 -1 -0 5 3 -12 -19 -8 3 4
-2 5 12 8 4 7 5 -1 7 17 18 19 21 18 17 16 17 24 26 22 22 22 17 10 6 10 11 5 2 4 5 6 9 10 11 10 8 7 8 9 8 8 8 9 11 9 7 8 8 5 -0 -3 -2 -7 -8 3 -2 -23 -18 3 8 6 6 2 1 3 3 7 10 7 5 8 8 5 3 3 1 1 2 1 0 1 2 5 7 6
9 9 12 10 8 13 11 1 -3 2 7 7 7 11 16 8 2 10 19 20 20 19 19 18 10 4 6 2 -6 -10 -11 -12 -9 -5 -2 0 1 1 2 4 7 9 12 13 13 13 12 11 11 12 8 4 4 -1 -7 -8 -13 -20 -12 -2 -3 -1 5 6 6 9 9 9 6 0 -4 -0 6 9 9 5 3 4 6 6 8 8 3 3 6 6
11 10 13 14 12 13 17 14 6 5 10 9 1 0 6 5 2 7 12 12 12 11 12 16 15 11 12 14 15 15 11 7 9 11 10 10 10 9 8 7 6 5 5 6 8 10 12 12 9 8 8 8 10 11 9 7 4 3 5 2 -4 -2 0 -2 -1 2 4 3 2 2 3 5 8 8 6 6 5 3 2 7 9 1 -5 0 8 7
10 7 9 15 19 16 15 16 15 13 12 9 3 2 8 12 10 9 12 17 18 14 10 9 9 10 12 17 20 22 21 19 17 16 15 15 15 16 16 14 10 7 4 3 3 3 4 8 9 7 6 8 8 7 5 3 2 2 3 4 3 3 3 3 3 1 2 6 7 9 13 17 16 11 8 10 9 4 2 5 2 -3 -1 5 7 5
11 9 5 8 14 15 13 13 13 13 13 12 8 5 6 10 7 -3 -1 12 19 18 16 15 13 11 13 16 17 15 15 16 15 14 14 12 11 12 15 18 19 17 14 11 9 6 3 2 4 5 6 7 8 8 6 4 4 4 4 3 1 -0 2 7 8 2 -2 -2 -1 -0 3 10 15 16 15 14 14 16 17 16 13 13 14 13 10 8
13 12 8 8 14 17 15 14 11 10 11 11 10 11 8 5 2 -3 -7 -5 -3 -2 4 11 12 9 8 8 8 8 10 11 12 13 12 11 10 8 8 11 15 17 19 19 19 18 14 11 7 5 4 4 4 5 6 6 6 6 6 5 3 1 0 1 1 -3 -4 1 8 12 14 15 17 17 14 11 10 10 10 10 9 8 7 6 5 5
15 14 9 5 11 16 16 17 16 16 16 11 8 13 14 8 5 7 5 2 -1 -1 2 5 3 2 6 10 12 11 9 6 5 6 8 10 13 12 10 8 7 8 11 13 14 15 17 18 17 14 12 10 8 7 7 7 7 8 8 7 6 5 5 5 6 5 5 7 6 4 1 1 1 1 -1 -4 -5 -7 -6 -3 -1 -1 -0 0 -0 -1
15 18 13 5 3 3 1 3 6 6 9 11 9 9 12 12 10 10 10 10 9 9 11 12 11 8 8 10 9 7 6 4 4 5 6 6 7 9 10 10 10 9 9 8 9 10 10 11 13 14 15 16 16 15 14 12 11 9 8 8 9 9 10 10 10 8 7 5 3 1 1 1 2 2 2 2 4 6 7 9 10 11 11 11 10 9
12 14 15 13 12 9 5 5 4 1 1 7 10 9 9 10 11 13 13 11 9 8 9 9 8 7 8 8 7 5 3 2 2 3 3 4 5 5 6 7 8 8 8 9 10 10 10 10 9 9 10 11 12 14 15 15 14 14 13 13 13 14 14 13 12 12 12 12 12 11 11 10 10 11 11 12 12 12 12 12 12 12 11 11 11 12
11 10 10 10 10 10 11 10 10 9 8 8 8 10 10 9 7 8 9 9 10 12 14 13 10 8 7 5 3 2 0 -1 -1 1 3 5 6 6 5 5 5 5 4 5 7 8 10 10 9 9 9 8 6 6 6 7 7 8 9 9 9 9 10 10 10 11 11 12 13 12 12 13 13 12 10 9 8 7 8 8 8 7 8 8 7 7
15 15 16 17 16 14 14 14 14 14 14 11 6 4 6 8 8 7 6 5 5 8 12 14 13 11 10 9 7 7 7 6 5 5 5 7 8 8 8 7 6 5 4 3 2 3 5 7 8 9 10 9 8 7 7 6 6 5 5 5 5 4 4 4 5 5 5 6 7 7 7 8 8 7 8 7 7 7 7 7 6 6 5 5 4 4
14 15 13 14 16 16 14 13 14 14 16 18 17 13 10 9 10 12 11 8 6 7 8 8 5 4 7 11 12 10 7 6 6 6 8 9 9 9 10 10 8 8 8 7 5 3 2 3 4 6 7 8 9 10 10 9 9 8 8 8 8 8 7 7 7 7 7 7 7 7 8 7 7 7 6 6 5 3 2 3 5 5 5 5 5 5
12 12 10 8 9 10 10 11 12 11 12 15 18 19 19 17 15 15 16 16 15 13 13 11 8 5 5 7 7 5 2 1 1 2 4 6 6 6 7 8 8 9 9 10 10 8 6 5 4 3 4 4 5 6 7 8 9 9 8 8 8 8 8 9 9 9 9 10 10 9 8 7 5 4 2 2 1 -1 -2 -1 2 5 7 8 8 7
11 10 10 10 9 10 10 11 12 13 12 13 14 14 15 16 16 15 15 16 17 18 18 18 18 17 15 13 11 9 7 6 5 3 2 1 -0 0 0 1 2 4 5 7 7 6 7 7 7 6 6 5 4 4 3 3 4 4 4 4 5 6 6 7 7 7 7 6 5 4 2 2 2 2 2 0 -2 -2 1 5 8 10 11 11 11 11
11 10 11 12 13 15 15 14 14 13 13 14 16 16 14 14 15 14 14 14 14 15 16 17 18 19 20 20 20 19 19 18 16 14 12 10 7 6 5 4 4 4 4 4 4 4 5 5 6 8 8 8 7 7 7 6 5 4 3 3 4 4 4 5 6 6 6 5 3 3 4 5 4 3 1 -1 -1 3 9 13 15 15 14 13 15 17
Height
5726 5727 5729 5731 5734 5734 5734 5734 5736 5738 5739 5740 5741 5742 5743 5745 5747 5749 5751 5752 5751 5750 5750 5752 5755 5758 5760 5761 5763 5764 5765 5766 5766 5765 5765 5768 5771 5771 5772 5773 5773 5774 5776 5778 5779 5780 5780 5780 5778 5777 5777 5777 5777 5778 5778 5778 5779 5779 5781 5782 5784 5785 5786 5787 5788 5789 5789 5789 5790 5790 5791 5792 5793 5795 5796 5797 5797 5797 5798 5798 5799 5799 5799 5799 5799 5799
5723 5725 5728 5730 5730 5730 5730 5732 5733 5735 5736 5737 5738 5739 5741 5743 5745 5748 5750 5749 5748 5747 5749 5750 5751 5753 5756 5758 5760 5762 5762 5763 5764 5763 5763 5765 5766 5767 5769 5770 5771 5773 5775 5776 5777 5778 5779 5778 5777 5776 5778 5777 5776 5776 5776 5777 5777 5778 5780 5781 5782 5783 5784 5785 5786 5786 5787 5787 5789 5790 5790 5791 5792 5793 5794 5795 5795 5796 5796 5797 5798 5798 5798 5798 5798 5798
5722 5725 5726 5726 5726 5727 5728 5729 5731 5732 5733 5734 5736 5737 5738 5741 5743 5746 5748 5747 5745 5745 5747 5747 5748 5750 5753 5755 5757 5759 5760 5762 5762 5762 5762 5763 5763 5765 5767 5767 5770 5773 5775 5776 5776 5776 5777 5777 5776 5776 5776 5776 5775 5775 5776 5776 5776 5776 5778 5779 5780 5781 5782 5783 5783 5784 5785 5786 5787 5789 5789 5789 5790 5791 5792 5793 5794 5794 5795 5796 5797 5797 5797 5797 5796 5796
5721 5722 5723 5723 5723 5725 5726 5727 5728 5729 5731 5732 5733 5735 5737 5739 5740 5743 5745 5744 5743 5743 5745 5746 5746 5748 5751 5752 5754 5757 5759 5760 5760 5760 5761 5762 5762 5763 5764 5766 5769 5772 5773 5774 5774 5775 5775 5775 5775 5775 5775 5775 5774 5775 5775 5776 5775 5775 5776 5777 5778 5779 5780 5780 5780 5782 5784 5785 5786 5788 5788 5789 5789 5790 5791 5792 5792 5793 5794 5795 5796 5796 5796 5795 5795 5795
5719 5719 5719 5720 5721 5722 5723 5724 5725 5727 5729 5730 5731 5733 5735 5737 5738 5740 5742 5741 5741 5742 5743 5744 5745 5746 5748 5749 5751 5754 5756 5757 5758 5758 5759 5760 5760 5760 5762 5764 5767 5770 5772 5772 5773 5774 5774 5774 5774 5774 5774 5774 5774 5774 5774 5774 5774 5773 5774 5776 5777 5777 5777 5778 5779 5781 5783 5783 5785 5787 5788 5789 5790 5790 5790 5790 5791 5791 5792 5793 5794 5795 5795 5794 5793 5793
5717 5716 5717 5718 5719 5720 5721 5722 5723 5724 5726 5727 5729 5730 5732 5735 5736 5737 5738 5738 5739 5740 5740 5742 5743 5743 5745 5747 5749 5752 5754 5755 5756 5756 5756 5757 5757 5758 5760 5763 5767 5769 5770 5771 5771 5772 5772 5771 5771 5772 5772 5771 5771 5772 5772 5772 5772 5772 5772 5774 5775 5775 5775 5776 5778 5779 5781 5782 5783 5785 5786 5788 5789 5789 5789 5789 5789 5790 5791 5792 5793 5793 5793 5793 5792 5792
5713 5713 5715 5716 5716 5717 5718 5720 5721 5722 5723 5725 5727 5728 5730 5732 5733 5733 5735 5735 5736 5737 5738 5740 5740 5741 5743 5746 5748 5750 5753 5753 5753 5753 5753 5753 5754 5757 5760 5762 5765 5767 5768 5769 5769 5769 5769 5769 5769 5770 5770 5769 5769 5769 5770 5770 5769 5770 5770 5771 5772 5773 5774 5775 5776 5778 5780 5780 5781 5783 5784 5786 5787 5787 5787 5788 5788 5789 5790 5790 5791 5791 5792 5792 5792 5792
5710 5711 5713 5713 5714 5715 5716 5718 5718 5719 5720 5722 5724 5725 5727 5729 5729 5731 5732 5733 5734 5735 5735 5737 5737 5738 5741 5743 5746 5749 5751 5752 5751 5750 5750 5750 5753 5756 5759 5761 5763 5765 5766 5767 5767 5767 5767 5766 5767 5768 5768 5768 5767 5767 5767 5767 5768 5768 5769 5769 5769 5770 5772 5773 5774 5776 5778 5779 5780 5781 5782 5783 5784 5785 5785 5786 5787 5788 5788 5789 5789 5789 5790 5790 5790 5790
5707 5709 5710 5710 5711 5712 5714 5715 5715 5716 5717 5719 5721 5722 5723 5725 5726 5727 5729 5730 5731 5732 5733 5735 5735 5736 5739 5742 5744 5747 5749 5750 5750 5749 5748 5750 5753 5755 5758 5760 5762 5763 5765 5765 5765 5765 5765 5765 5766 5767 5767 5766 5765 5765 5765 5765 5766 5766 5767 5767 5768 5769 5770 5771 5771 5773 5775 5777 5778 5779 5780 5781 5781 5782 5783 5784 5785 5786 5786 5786 5787 5787 5788 5788 5789 5789
5705 5706 5707 5707 5708 5709 5712 5713 5713 5714 5715 5717 5718 5718 5719 5722 5723 5724 5726 5728 5729 5729 5731 5733 5733 5734 5737 5740 5742 5744 5746 5747 5749 5748 5748 5750 5752 5754 5757 5759 5761 5762 5763 5763 5763 5763 5764 5764 5765 5765 5764 5764 5763 5763 5763 5763 5764 5765 5766 5766 5767 5768 5769 5769 5770 5771 5772 5774 5775 5777 5778 5778 5779 5779 5780 5781 5782 5783 5784 5784 5785 5785 5786 5786 5787 5787
5703 5704 5704 5704 5705 5707 5709 5710 5711 5712 5713 5714 5714 5715 5716 5718 5720 5722 5724 5726 5726 5726 5729 5731 5732 5733 5736 5738 5740 5741 5743 5744 5746 5747 5748 5750 5751 5753 5756 5758 5760 5761 5761 5761 5761 5762 5762 5763 5763 5763 5762 5761 5761 5761 5760 5761 5762 5763 5764 5765 5766 5767 5768 5769 5769 5770 5770 5771 5773 5774 5775 5776 5776 5777 5778 5779 5780 5781 5781 5782 5783 5783 5784 5784 5785 5784
5700 5700 5701 5702 5703 5704 5706 5707 5708 5710 5711 5711 5712 5713 5714 5715 5717 5719 5722 5724 5724 5725 5728 5729 5729 5731 5733 5735 5737 5739 5740 5742 5743 5744 5746 5748 5750 5752 5755 5757 5758 5759 5759 5759 5760 5760 5761 5761 5761 5761 5760 5759 5759 5759 5758 5759 5760 5761 5762 5763 5765 5766 5767 5767 5768 5768 5769 5770 5771 5772 5772 5773 5774 5775 5776 5776 5777 5778 5779 5780 5780 5781 5782 5783 5783 5783
5696 5698 5699 5700 5701 5702 5704 5705 5707 5708 5709 5709 5710 5712 5713 5714 5715 5718 5720 5721 5721 5723 5726 5727 5728 5729 5730 5732 5733 5735 5737 5739 5740 5741 5743 5745 5748 5751 5754 5755 5756 5756 5756 5757 5757 5758 5758 5758 5758 5758 5757 5757 5757 5757 5757 5758 5759 5760 5761 5762 5763 5764 5764 5765 5766 5766 5767 5768 5769 5769 5770 5771 5772 5772 5773 5773 5775 5776 5776 5777 5778 5779 5780 5781 5781 5782
5694 5696 5697 5698 5699 5700 5702 5703 5705 5707 5708 5708 5709 5710 5711 5712 5713 5715 5717 5718 5719 5722 5724 5726 5727 5727 5727 5729 5730 5731 5733 5736 5737 5738 5740 5743 5746 5749 5751 5752 5753 5753 5753 5754 5755 5755 5755 5755 5756 5756 5755 5755 5755 5756 5757 5758 5758 5759 5760 5760 5761 5762 5763 5763 5764 5765 5765 5766 5766 5767 5768 5769 5769 5769 5770 5771 5772 5774 5774 5775 5776 5778 5779 5779 5779 5780
5691 5693 5694 5695 5697 5698 5700 5702 5704 5706 5707 5707 5708 5709 5709 5710 5711 5714 5716 5717 5718 5720 5723 5725 5725 5724 5725 5726 5727 5728 5731 5733 5735 5736 5737 5740 5743 5745 5747 5749 5750 5750 5751 5752 5752 5752 5752 5753 5753 5754 5754 5754 5754 5754 5756 5757 5758 5758 5758 5759 5759 5760 5761 5762 5763 5763 5764 5764 5764 5765 5766 5767 5767 5767 5768 5768 5770 5771 5772 5773 5775 5776 5777 5777 5777 5778
5688 5690 5692 5694 5695 5697 5700 5701 5702 5703 5705 5706 5706 5706 5707 5708 5710 5712 5714 5715 5717 5719 5721 5722 5721 5721 5722 5724 5725 5727 5729 5731 5733 5734 5735 5738 5740 5742 5744 5746 5747 5747 5748 5750 5750 5751 5751 5751 5751 5752 5752 5752 5753 5754 5755 5756 5756 5756 5756 5757 5758 5758 5759 5760 5761 5762 5762 5763 5764 5765 5766 5766 5766 5766 5766 5767 5768 5770 5771 5772 5773 5774 5775 5775 5775 5776
5686 5688 5690 5692 5693 5695 5697 5699 5700 5702 5703 5704 5705 5705 5707 5709 5710 5711 5713 5713 5715 5717 5718 5718 5718 5718 5719 5720 5722 5724 5727 5729 5730 5730 5731 5733 5736 5739 5741 5743 5744 5745 5746 5748 5748 5749 5750 5750 5750 5750 5751 5751 5752 5753 5754 5754 5754 5755 5755 5756 5757 5758 5759 5760 5760 5761 5762 5763 5763 5764 5764 5765 5764 5764 5765 5766 5767 5768 5769 5769 5770 5771 5772 5772 5773 5774
5683 5685 5688 5689 5690 5692 5694 5696 5698 5699 5701 5702 5704 5705 5707 5708 5708 5709 5710 5711 5713 5714 5714 5714 5714 5715 5716 5717 5718 5721 5724 5727 5728 5728 5728 5730 5733 5737 5739 5740 5741 5742 5743 5745 5746 5747 5748 5748 5748 5749 5749 5750 5751 5751 5752 5752 5752 5753 5754 5755 5757 5757 5758 5759 5759 5760 5760 5761 5762 5762 5763 5763 5763 5763 5763 5764 5765 5766 5766 5767 5768 5769 5769 5770 5771 5772
5679 5682 5685 5687 5688 5690 5692 5693 5695 5696 5698 5700 5701 5703 5704 5704 5705 5707 5708 5709 5711 5712 5712 5712 5712 5713 5714 5715 5717 5719 5722 5725 5726 5726 5727 5729 5731 5733 5735 5736 5738 5739 5741 5743 5743 5745 5746 5746 5747 5747 5747 5748 5749 5749 5749 5749 5749 5750 5751 5753 5754 5756 5757 5758 5758 5758 5758 5759 5759 5759 5760 5760 5760 5760 5761 5762 5763 5763 5763 5764 5765 5765 5766 5767 5768 5769
5677 5679 5682 5684 5686 5687 5689 5691 5692 5694 5696 5697 5698 5699 5700 5701 5703 5704 5706 5707 5709 5710 5710 5710 5711 5711 5712 5713 5716 5719 5721 5724 5725 5725 5726 5727 5729 5730 5731 5733 5736 5737 5739 5740 5741 5743 5744 5744 5745 5745 5746 5746 5746 5746 5746 5744 5744 5745 5748 5750 5752 5754 5755 5756 5756 5756 5755 5755 5756 5756 5756 5757 5757 5757 5757 5758 5759 5760 5760 5761 5762 5763 5764 5765 5766 5767
5675 5677 5680 5682 5683 5685 5687 5688 5690 5691 5692 5694 5695 5696 5698 5699 5700 5702 5704 5705 5707 5708 5708 5708 5709 5709 5710 5712 5714 5717 5720 5721 5722 5723 5724 5724 5725 5727 5729 5731 5733 5735 5736 5738 5739 5740 5741 5742 5743 5743 5744 5744 5744 5745 5745 5744 5744 5745 5748 5750 5751 5753 5754 5753 5753 5752 5752 5751 5752 5752 5752 5753 5753 5753 5754 5755 5756 5757 5757 5758 5759 5760 5761 5762 5763 5765
5672 5674 5678 5680 5681 5683 5685 5686 5687 5688 5688 5689 5691 5693 5695 5696 5697 5699 5701 5702 5703 5705 5706 5706 5707 5707 5709 5710 5711 5714 5717 5719 5720 5721 5721 5722 5724 5726 5727 5729 5731 5732 5733 5735 5736 5737 5738 5740 5741 5742 5742 5742 5743 5743 5744 5746 5746 5747 5748 5749 5748 5748 5748 5748 5748 5748 5748 5748 5749 5749 5749 5750 5750 5751 5751 5752 5753 5753 5754 5755 5756 5757 5758 5760 5761 5762
5669 5671 5674 5677 5678 5680 5682 5683 5685 5685 5685 5686 5688 5690 5692 5694 5695 5697 5698 5699 5700 5702 5703 5704 5705 5705 5706 5707 5709 5712 5714 5716 5717 5717 5717 5720 5722 5724 5726 5728 5729 5730 5731 5732 5733 5735 5736 5737 5738 5739 5739 5740 5741 5741 5742 5744 5744 5745 5747 5746 5745 5744 5744 5744 5746 5747 5747 5746 5746 5747 5747 5748 5748 5749 5749 5750 5750 5751 5752 5753 5754 5755 5756 5757 5759 5760
5667 5668 5671 5674 5676 5678 5679 5680 5682 5683 5683 5684 5686 5688 5690 5691 5693 5695 5696 5697 5698 5699 5700 5702 5703 5702 5703 5706 5708 5710 5712 5714 5715 5714 5715 5717 5719 5721 5724 5726 5728 5729 5729 5730 5731 5732 5733 5734 5735 5735 5736 5737 5739 5739 5740 5739 5740 5741 5744 5744 5744 5744 5744 5745 5746 5747 5746 5746 5746 5747 5748 5748 5748 5748 5748 5748 5749 5750 5750 5751 5752 5753 5754 5755 5756 5757
5664 5666 5668 5671 5674 5675 5676 5676 5678 5679 5680 5682 5684 5686 5687 5688 5690 5692 5693 5695 5696 5697 5698 5700 5700 5701 5702 5704 5705 5707 5710 5712 5713 5714 5715 5716 5717 5718 5721 5723 5725 5726 5727 5728 5729 5729 5730 5731 5732 5733 5734 5736 5737 5738 5738 5738 5739 5740 5742 5743 5743 5743 5743 5743 5744 5745 5745 5746 5746 5746 5747 5748 5748 5747 5747 5747 5748 5749 5749 5749 5750 5751 5752 5753 5754 5755
5661 5663 5665 5668 5670 5672 5673 5673 5674 5676 5678 5680 5681 5682 5684 5686 5687 5688 5690 5692 5693 5695 5696 5698 5699 5699 5701 5702 5703 5705 5707 5709 5710 5712 5713 5714 5715 5717 5719 5720 5722 5724 5725 5727 5728 5728 5729 5730 5731 5732 5733 5735 5736 5737 5737 5738 5739 5740 5740 5741 5741 5741 5741 5741 5742 5743 5743 5744 5744 5744 5744 5744 5745 5745 5745 5746 5747 5747 5747 5748 5749 5750 5751 5752 5753 5753
5659 5660 5662 5665 5667 5669 5670 5670 5671 5673 5675 5677 5678 5679 5682 5684 5685 5686 5687 5689 5691 5693 5694 5695 5697 5697 5699 5700 5702 5703 5704 5706 5708 5710 5711 5712 5713 5715 5716 5718 5719 5721 5723 5725 5726 5727 5728 5729 5730 5731 5732 5733 5734 5735 5735 5737 5738 5739 5739 5739 5738 5739 5740 5741 5741 5741 5741 5741 5741 5741 5741 5741 5741 5742 5743 5744 5746 5746 5746 5746 5747 5748 5749 5750 5751 5751
5656 5657 5659 5661 5664 5665 5666 5666 5667 5669 5672 5674 5674 5676 5679 5681 5682 5684 5685 5686 5689 5691 5692 5694 5695 5696 5697 5698 5699 5700 5702 5704 5706 5708 5709 5710 5711 5713 5714 5715 5717 5718 5720 5722 5723 5724 5725 5726 5728 5729 5730 5731 5732 5732 5733 5735 5736 5737 5738 5737 5737 5738 5740 5740 5740 5738 5738 5738 5738 5738 5738 5739 5739 5739 5740 5741 5743 5744 5744 5744 5745 5746 5747 5748 5748 5749
5653 5654 5656 5658 5660 5662 5662 5663 5664 5665 5668 5671 5672 5674 5676 5678 5680 5682 5683 5684 5686 5688 5690 5692 5694 5695 5696 5696 5697 5698 5699 5701 5704 5706 5707 5708 5709 5711 5711 5712 5714 5715 5717 5718 5720 5721 5723 5724 5725 5726 5727 5728 5730 5730 5731 5732 5733 5734 5735 5734 5735 5737 5738 5738 5737 5736 5736 5736 5735 5735 5735 5736 5737 5738 5739 5739 5740 5741 5741 5741 5742 5743 5744 5744 5745 5746
5650 5651 5652 5654 5656 5657 5658 5660 5661 5662 5665 5668 5670 5672 5673 5675 5677 5679 5681 5682 5683 5685 5687 5689 5690 5692 5693 5694 5694 5695 5696 5698 5701 5703 5704 5706 5707 5707 5708 5708 5710 5712 5713 5715 5716 5717 5719 5721 5722 5724 5725 5726 5727 5728 5728 5728 5728 5730 5731 5731 5732 5734 5735 5735 5734 5734 5734 5734 5733 5733 5733 5734 5735 5737 5738 5738 5738 5739 5739 5739 5739 5740 5740 5742 5743 5744
5646 5647 5648 5649 5651 5652 5654 5657 5658 5660 5663 5665 5667 5669 5670 5671 5674 5676 5677 5679 5680 5682 5684 5685 5687 5688 5689 5691 5692 5693 5694 5696 5698 5699 5701 5702 5703 5703 5704 5705 5707 5708 5710 5711 5712 5713 5715 5716 5718 5719 5721 5722 5723 5724 5724 5724 5725 5726 5728 5729 5730 5730 5731 5732 5732 5733 5733 5733 5732 5731 5731 5732 5733 5734 5735 5736 5736 5736 5737 5737 5737 5738 5738 5739 5741 5742
5642 5644 5645 5645 5647 5649 5652 5655 5655 5657 5660 5662 5664 5666 5667 5669 5671 5673 5674 5676 5677 5679 5681 5682 5684 5685 5687 5689 5691 5691 5692 5694 5695 5696 5697 5699 5699 5700 5702 5703 5704 5705 5706 5708 5709 5710 5711 5712 5714 5715 5716 5717 5718 5720 5721 5721 5722 5722 5723 5725 5726 5727 5728 5728 5729 5730 5730 5730 5729 5729 5730 5731 5731 5732 5733 5734 5734 5734 5735 5735 5735 5735 5736 5737 5738 5739
5640 5642 5643 5643 5645 5647 5649 5651 5652 5655 5657 5658 5659 5662 5665 5667 5668 5670 5672 5673 5675 5676 5678 5680 5681 5682 5684 5686 5687 5689 5690 5691 5691 5692 5693 5695 5696 5697 5699 5700 5701 5702 5704 5705 5707 5707 5708 5710 5711 5712 5713 5713 5714 5716 5717 5718 5719 5719 5720 5721 5722 5723 5723 5724 5725 5725 5726 5727 5727 5727 5728 5728 5729 5730 5731 5732 5732 5732 5733 5733 5733 5733 5733 5734 5735 5736
5639 5640 5641 5642 5644 5645 5646 5647 5649 5652 5653 5654 5655 5658 5661 5663 5665 5666 5668 5670 5672 5673 5676 5678 5679 5680 5681 5682 5683 5685 5687 5688 5688 5688 5689 5690 5692 5694 5696 5697 5698 5699 5701 5703 5704 5704 5704 5706 5707 5708 5709 5709 5710 5711 5712 5713 5714 5714 5716 5717 5718 5719 5720 5720 5721 5722 5723 5724 5724 5724 5725 5725 5726 5727 5728 5729 5729 5730 5730 5730 5730 5730 5730 5731 5732 5733
5636 5638 5639 5641 5642 5643 5644 5645 5646 5648 5650 5651 5653 5655 5657 5659 5661 5662 5663 5666 5667 5669 5672 5675 5676 5677 5678 5678 5680 5682 5684 5684 5684 5683 5684 5686 5688 5690 5692 5694 5694 5695 5697 5700 5702 5702 5701 5702 5704 5705 5706 5705 5705 5706 5706 5708 5708 5709 5711 5712 5713 5715 5716 5717 5718 5719 5720 5721 5721 5721 5722 5722 5723 5724 5724 5725 5725 5725 5726 5726 5726 5726 5726 5727 5729 5730
5634 5636 5637 5638 5640 5642 5643 5643 5644 5646 5648 5649 5650 5651 5654 5656 5657 5658 5660 5662 5664 5666 5669 5671 5672 5673 5675 5676 5676 5678 5679 5679 5679 5680 5681 5683 5685 5687 5689 5690 5691 5692 5693 5694 5697 5698 5698 5699 5701 5702 5704 5704 5704 5703 5702 5703 5704 5704 5705 5707 5708 5710 5712 5713 5715 5716 5717 5717 5718 5718 5719 5719 5720 5720 5720 5721 5721 5722 5722 5723 5723 5724 5724 5724 5725 5726
5633 5634 5636 5636 5638 5640 5641 5642 5643 5644 5645 5646 5647 5649 5651 5652 5654 5655 5657 5659 5661 5663 5666 5667 5669 5670 5671 5672 5672 5673 5674 5674 5675 5676 5678 5680 5682 5683 5685 5686 5688 5688 5689 5690 5691 5693 5694 5695 5697 5698 5700 5701 5702 5702 5702 5702 5702 5702 5703 5704 5705 5706 5707 5708 5710 5711 5712 5712 5713 5714 5715 5716 5716 5716 5717 5717 5718 5718 5719 5720 5720 5720 5721 5721 5721 5722
5631 5633 5633 5634 5636 5638 5639 5640 5641 5642 5643 5644 5645 5647 5648 5649 5651 5652 5654 5656 5658 5660 5661 5663 5665 5666 5667 5668 5669 5669 5670 5670 5671 5673 5674 5675 5677 5679 5680 5682 5683 5684 5685 5686 5687 5688 5689 5690 5692 5693 5694 5695 5697 5698 5699 5700 5701 5701 5702 5703 5703 5704 5704 5704 5705 5705 5706 5707 5708 5709 5710 5711 5711 5712 5712 5713 5713 5714 5714 5715 5715 5716 5716 5717 5717 5717
5629 5631 5632 5633 5634 5635 5636 5638 5639 5640 5641 5642 5643 5644 5646 5647 5648 5649 5651 5653 5656 5657 5658 5659 5661 5662 5664 5665 5666 5666 5667 5667 5667 5669 5669 5670 5671 5673 5675 5677 5678 5679 5681 5682 5683 5683 5684 5685 5687 5687 5688 5689 5691 5693 5694 5695 5696 5697 5698 5699 5700 5701 5701 5702 5702 5701 5701 5702 5704 5704 5705 5706 5706 5707 5707 5708 5708 5709 5709 5709 5710 5710 5710 5711 5711 5711
5627 5629 5630 5631 5631 5633 5634 5635 5636 5638 5639 5640 5641 5642 5643 5644 5646 5647 5648 5650 5653 5654 5655 5656 5658 5659 5660 5661 5662 5663 5663 5664 5664 5664 5664 5665 5666 5667 5669 5671 5672 5673 5675 5676 5677 5679 5679 5680 5681 5682 5682 5684 5685 5686 5688 5689 5691 5692 5693 5694 5695 5696 5697 5697 5698 5698 5698 5699 5699 5700 5700 5700 5700 5700 5701 5701 5702 5702 5703 5703 5703 5703 5704 5704 5704 5704
5625 5626 5628 5628 5629 5630 5631 5633 5634 5635 5637 5638 5639 5640 5641 5642 5644 5645 5646 5647 5649 5650 5651 5652 5654 5655 5656 5657 5658 5659 5659 5660 5660 5660 5660 5660 5662 5663 5664 5665 5667 5668 5669 5670 5672 5673 5674 5675 5676 5677 5677 5678 5680 5681 5682 5683 5684 5685 5687 5688 5689 5690 5691 5692 5693 5693 5693 5694 5694 5695 5694 5694 5695 5694 5694 5695 5695 5695 5696 5696 5696 5696 5696 5696 5696 5697
5624 5625 5625 5626 5627 5628 5629 5631 5632 5633 5634 5635 5636 5637 5639 5640 5641 5642 5644 5645 5646 5647 5648 5649 5651 5652 5653 5653 5654 5655 5655 5655 5655 5655 5655 5656 5657 5659 5660 5661 5662 5663 5664 5665 5666 5667 5668 5669 5670 5671 5672 5673 5674 5675 5676 5678 5679 5680 5681 5683 5684 5684 5685 5686 5686 5686 5687 5687 5688 5688 5688 5688 5688 5688 5688 5688 5689 5689 5689 5689 5689 5689 5689 5689 5689 5690
5622 5623 5624 5624 5625 5626 5627 5629 5630 5631 5631 5632 5634 5635 5636 5638 5638 5639 5641 5642 5643 5644 5645 5647 5648 5649 5649 5650 5650 5650 5651 5651 5651 5652 5653 5653 5654 5656 5656 5657 5658 5659 5660 5661 5662 5663 5664 5664 5665 5666 5667 5668 5669 5670 5671 5672 5673 5674 5675 5676 5677 5677 5678 5678 5679 5679 5680 5680 5681 5681 5682 5682 5682 5682 5682 5682 5682 5682 5682 5682 5682 5682 5682 5682 5682 5682
5620 5621 5622 5622 5623 5624 5625 5626 5627 5628 5628 5629 5631 5632 5633 5634 5635 5636 5638 5639 5640 5640 5642 5644 5645 5645 5645 5646 5646 5646 5647 5647 5648 5649 5650 5651 5652 5653 5653 5654 5654 5655 5656 5657 5658 5659 5659 5660 5660 5662 5663 5663 5664 5665 5666 5667 5668 5669 5669 5669 5670 5670 5670 5671 5671 5672 5672 5673 5673 5674 5674 5674 5675 5675 5675 5675 5674 5674 5674 5674 5674 5674 5674 5674 5674 5674
5618 5618 5619 5619 5620 5621 5622 5623 5624 5625 5625 5626 5627 5628 5629 5630 5631 5632 5634 5635 5636 5637 5638 5639 5640 5641 5641 5642 5642 5643 5644 5645 5645 5647 5647 5648 5649 5650 5650 5650 5650 5651 5652 5653 5653 5654 5655 5655 5656 5657 5658 5659 5659 5660 5661 5662 5662 5663 5663 5663 5663 5663 5663 5663 5663 5663 5664 5664 5665 5665 5666 5666 5666 5666 5666 5666 5666 5666 5666 5666 5666 5666 5666 5665 5665 5665
5615 5616 5616 5617 5618 5618 5619 5620 5620 5621 5622 5623 5624 5624 5625 5626 5627 5628 5629 5630 5632 5633 5634 5634 5635 5636 5636 5637 5637 5638 5640 5641 5641 5643 5644 5644 5645 5645 5645 5645 5645 5645 5647 5648 5648 5649 5650 5650 5651 5652 5653 5654 5654 5654 5655 5656 5656 5656 5657 5656 5656 5656 5656 5656 5656 5656 5656 5657 5657 5657 5657 5658 5657 5657 5657 5657 5657 5657 5657 5657 5657 5657 5657 5656 5656 5656
5613 5613 5614 5614 5615 5616 5616 5617 5617 5617 5618 5618 5619 5620 5621 5622 5623 5624 5624 5625 5627 5628 5628 5629 5630 5630 5631 5631 5632 5633 5634 5635 5636 5638 5639 5639 5639 5639 5640 5640 5639 5640 5641 5642 5643 5644 5644 5645 5646 5647 5648 5648 5648 5648 5649 5650 5650 5650 5650 5650 5649 5649 5649 5649 5650 5650 5649 5649 5649 5649 5649 5649 5649 5649 5648 5648 5648 5648 5648 5648 5648 5648 5647 5647 5646 5646
5611 5611 5612 5612 5612 5613 5613 5614 5614 5614 5614 5614 5615 5616 5617 5618 5618 5619 5619 5620 5621 5622 5623 5624 5624 5625 5625 5626 5627 5627 5627 5628 5630 5631 5632 5633 5633 5634 5634 5634 5633 5634 5635 5636 5638 5638 5638 5639 5640 5641 5641 5641 5642 5642 5643 5644 5645 5644 5643 5643 5643 5643 5643 5644 5643 5643 5643 5642 5642 5642 5642 5642 5641 5641 5640 5640 5640 5640 5639 5639 5638 5638 5637 5636 5636 5635
5608 5609 5609 5609 5610 5610 5611 5611 5611 5610 5610 5611 5611 5612 5612 5613 5613 5613 5614 5615 5616 5616 5617 5618 5619 5619 5620 5620 5621 5620 5621 5622 5623 5624 5625 5626 5627 5627 5628 5628 5628 5628 5628 5630 5632 5632 5632 5633 5633 5634 5635 5635 5635 5635 5636 5637 5638 5637 5636 5636 5636 5637 5637 5637 5636 5636 5636 5636 5635 5635 5635 5634 5634 5634 5634 5633 5632 5631 5631 5630 5629 5629 5628 5627 5626 5626
5605 5605 5605 5606 5607 5608 5608 5608 5607 5607 5607 5607 5608 5608 5608 5608 5608 5608 5609 5609 5610 5611 5611 5612 5613 5614 5614 5614 5614 5614 5615 5615 5616 5617 5618 5618 5619 5620 5620 5621 5622 5622 5621 5623 5625 5626 5626 5626 5627 5628 5629 5629 5629 5629 5629 5630 5631 5630 5629 5629 5630 5630 5630 5630 5630 5630 5630 5630 5629 5629 5628 5628 5628 5628 5627 5626 5625 5624 5623 5622 5621 5620 5619 5618 5616 5616
5602 5602 5603 5603 5604 5604 5604 5605 5605 5605 5605 5605 5604 5604 5604 5603 5604 5604 5604 5604 5605 5605 5606 5607 5608 5608 5608 5608 5608 5608 5608 5608 5609 5610 5611 5611 5612 5613 5613 5613 5613 5614 5614 5615 5617 5618 5618 5619 5619 5620 5621 5622 5622 5622 5622 5623 5624 5622 5622 5623 5623 5623 5623 5623 5623 5623 5623 5623 5623 5622 5622 5622 5621 5621 5620 5619 5618 5617 5615 5613 5612 5610 5610 5610 5608 5606